Weather Roundup
Issued by NWS

Home | Current Version | Previous Version | Text Only | Print | Product List | Glossary On
Versions: 1 2 3 4 5 6 7 8 9 10 11 12 13 14 15 16 17 18 19 20 21 22 23 24 25 26 27 28 29 30 31 32 33 34 35 36 37 38 39 40 41 42 43 44 45 46 47 48 49 50
000
NZUS93 KARX 300510
HRRWXR

CURRENT HOURLY OBSERVATIONS ACROSS
MUCH OF THE UPPER MISSISSIPPI VALLEY
NATIONAL WEATHER SERVICE LA CROSSE WI
1200 AM CDT TUE AUG 30 2016


...SOUTHEAST MINNESOTA...


CITY           SKY/WX    TMP DP  RH WIND       PRES   REMARKS
ROCHESTER      FOG       68  68 100 S6        30.19F VSB 1/2
ROCHESTER/MAYO FAIR      71  71 100 S3        30.18F
WINONA         CLOUDY    72  70  94 CALM      30.17F
AUSTIN         MOCLDY    70  68  94 CALM      30.18F FOG
ALBERT LEA     MOCLDY    72  68  88 CALM      30.18F
DODGE CENTER   MOCLDY    70  66  88 SW6       30.18F
PRESTON        CLOUDY    68  67  95 S6        30.20F FOG
OWATONNA       CLOUDY    70  66  88 CALM      30.17F
FARIBAULT      CLOUDY    70  68  94 CALM      30.17F
$$

...ELSEWHERE IN MINNESOTA...


CITY           SKY/WX    TMP DP  RH WIND       PRES   REMARKS
MINNEAPOLIS    TSTM      69  66  90 N14       30.19R VSB 3/4
INTNL FALLS    CLEAR     57  56  96 CALM      30.16R
DULUTH         CLOUDY    67  65  93 NW9       30.12F
RED WING       CLOUDY    70  68  94 CALM      30.15F
REDWOOD FALLS  CLOUDY    73  68  84 SW10      30.13S
MANKATO        NOT AVBL
WORTHINGTON    MOCLDY    72  71  97 S7        30.20F
FAIRMONT       CLOUDY    69  68  96 SW6       30.16F FOG
$$

...SOUTHWEST WISCONSIN...


CITY           SKY/WX    TMP DP  RH WIND       PRES   REMARKS
LA CROSSE      CLOUDY    72  71  97 S5        30.16F
PRAIRIE DU CHI CLOUDY    72  70  95 CALM      30.17S FOG
BOSCOBEL       FOG       72  71  97 CALM      30.18S VSB 1/4
LONE ROCK      PTCLDY    70  69  97 CALM      30.19R
PLATTEVILLE    MOCLDY    70  70 100 CALM      30.19S
FORT MC COY    CLOUDY    64  64 100 CALM      30.18F
CAMP DOUGLAS   FOG       63  63 100 CALM      30.18S VSB 1/2
MAUSTON-NEW LI FOG       67  67 100 CALM      30.17F VSB 1/2
VIROQUA        FAIR      68  68 100 CALM      30.20S
WIS DELLS      CLOUDY    68  67  95 S3        30.18S FOG
$$

...ELSEWHERE IN WISCONSIN...


CITY           SKY/WX    TMP DP  RH WIND       PRES   REMARKS
MILWAUKEE      MOCLDY    74  69  85 S8        30.19R
MADISON        PTCLDY    71  68  90 MISG      30.18R
GREEN BAY      PTCLDY    70  70 100 SW3       30.17R
EAU CLAIRE     CLOUDY    73  64  73 N13       30.18R
BLACK RVR FLS  FOG       66  66 100 CALM      30.17S VSB 1
MEDFORD        CLOUDY    71  71 100 SW6       30.19R
WAUSAU         CLOUDY    71  69  93 SW3       30.17S
WIS RAPIDS     CLEAR     70  70 100 W5        30.19F
MARSHFIELD     CLOUDY    70  68  93 SW6       30.18F
RICE LAKE      TSTM      64  63  96 E6        30.20F
$$

...NORTHEAST IOWA...


CITY           SKY/WX    TMP DP  RH WIND       PRES   REMARKS
WATERLOO       CLOUDY    68  66  93 CALM      30.18S
DUBUQUE        PTCLDY    68  66  93 S3        30.20R
DECORAH        MOCLDY    72  72 100 CALM      30.18F FOG
MASON CITY     CLOUDY    68  66  93 CALM      30.20F
CHARLES CITY   CLOUDY    70  70 100 CALM      30.20F FOG
OELWEIN        CLOUDY    70  68  94 CALM      30.20S
$$

...ELSEWHERE IN IOWA...


CITY           SKY/WX    TMP DP  RH WIND       PRES   REMARKS
DES MOINES     LGT RAIN  74  72  93 SW3       30.18F
IOWA CITY      CLOUDY    73  70  90 CALM      30.20R
FORT DODGE     CLOUDY    70  66  88 S3        30.20F
MARSHALLTOWN   PTCLDY    68  68 100 NE5       30.18S
CEDAR RAPIDS   PTCLDY    70  70 100 SE3       30.18S
$$

...NORTHERN ILLINOIS...


CITY           SKY/WX    TMP DP  RH WIND       PRES   REMARKS
CHICAGO-OHARE  CLOUDY    74  71  91 CALM      30.17F
CHICAGO-MIDWAY CLOUDY    78  71  79 E5        30.17F
MOLINE         PTCLDY    73  70  90 CALM      30.17R
ROCKFORD       CLOUDY    72  69  90 CALM      30.20R FOG
PEORIA         PTCLDY    75  74  96 E5        30.17R
$$

NOTE: "FAIR" INDICATES FEW OR NO CLOUDS BELOW 12,000 FEET WITH NO
SIGNIFICANT WEATHER AND/OR OBSTRUCTIONS TO VISIBILITY. WIND
SPEEDS ARE IN MILES-PER-HOUR.




USA.gov is the U.S. government's official web portal to all federal, state and local government web resources and services.